Flag for Germany Weather past 2 weeks in Bad Oldesloe, Schleswig-Holstein, Germany

Now
70 °F

Passing clouds.


Feels Like: 70 °F
Forecast: 54 / 73 °F
Wind: 9 mph from Northeast

Location: Luebeck-Blankensee

Current Time: Sep 19, 2014 at 6:32:25 PM

Latest Report: Sep 19, 2014 at 5:50 PM


Visibility: N/A

Pressure: 29.92 "Hg

Humidity: 69%

Dew point: 59 °F

Location of Bad OldesloeLocation

Historic Weather in Bad Oldesloe — Graph

°F

Bad Oldesloe temperature yesterday

Maximum temperature yesterday: 75 °F (at 2:50 PM)
Minimum temperature yesterday: 52 °F (at 7:20 AM)
Average temperature yesterday: 66 °F

Past Weeks' High & Low Weather Summary

 TemperatureHumidityPressure
High82 °F (Sep 6, 2:50 PM)100% (Sep 5, 7:20 AM)30.24 "Hg (Sep 5, 7:20 AM)
Low50 °F (Sep 11, 6:50 AM)42% (Sep 6, 4:50 PM)29.86 "Hg (Sep 6, 3:50 PM)
Average65 °F77%30.05 "Hg
* Reported Sep 4 5:20 PM — Sep 19 5:20 PM, Bad Oldesloe, Weather by CustomWeather, © 2014

Note: Actual official high and low records may vary slightly from our data, if they occured in-between our weather recording intervals... More about our weather records

Advertising

Bad Oldesloe weather history for previous 24 hours

 ConditionsComfort  
Time TempWeatherWind HumidityBarometerVisibility
5:20 PM
Sep 19
72 °FPassing clouds.10 mph69%29.89 "HgN/A
4:50 PM72 °FScattered clouds.9 mph69%29.92 "HgN/A
4:20 PM72 °FScattered clouds.8 mph69%29.92 "HgN/A
3:50 PM72 °FScattered clouds.9 mph65%29.92 "HgN/A
3:20 PM75 °FScattered clouds.6 mph54%29.92 "HgN/A
2:50 PM75 °FPassing clouds.6 mph54%29.92 "HgN/A
2:20 PM75 °FPassing clouds.6 mph57%29.92 "HgN/A
1:50 PM73 °FPassing clouds.8 mph57%29.92 "HgN/A
12:50 PM72 °FPassing clouds.8 mph61%29.92 "HgN/A
12:20 PM72 °FPassing clouds.7 mph61%29.92 "HgN/A
11:50 AM68 °FPassing clouds.6 mph64%29.95 "HgN/A
11:20 AM68 °FPassing clouds.6 mph69%29.95 "HgN/A
10:50 AM68 °FPassing clouds.5 mph69%29.95 "HgN/A
10:20 AM64 °FPassing clouds.5 mph73%29.95 "HgN/A
9:50 AM63 °FPassing clouds.3 mph77%29.95 "HgN/A
9:20 AM61 °FSunny.2 mph83%29.95 "Hg10 mi
8:50 AM59 °FSunny.3 mph88%29.92 "Hg10 mi
8:20 AM55 °FSunny.2 mph100%29.92 "Hg10 mi
7:50 AM54 °FFog.1 mph100%29.92 "Hg5 mi
7:20 AM52 °FFog.2 mph100%29.92 "Hg5 mi
6:50 AM52 °FFog.1 mph100%29.92 "Hg4 mi
9:50 PM
Sep 18
61 °FClear.5 mph77%29.95 "Hg10 mi
9:20 PM61 °FClear.6 mph77%29.95 "Hg10 mi
8:50 PM64 °FClear.6 mph73%29.95 "Hg10 mi
8:20 PM64 °FSunny.5 mph73%29.95 "Hg10 mi
7:50 PM68 °FSunny.6 mph64%29.95 "Hg10 mi
7:20 PM68 °FSunny.5 mph69%29.95 "Hg10 mi
6:50 PM70 °FSunny.6 mph60%29.95 "Hg10 mi
6:20 PM72 °FPassing clouds.6 mph57%29.95 "HgN/A
Weather by CustomWeather, © 2014

See weather overviewHow to use our weather pages